Вернуться в каталог

ARIANE 5 DEB

SYLDA

АктивенGTO
NORAD 26613·DEBRIS·🇫🇷 France

Запущен Nov 16, 2000 с Guiana Space Centre

Loading…

TLE

УстаревающийSource: Space-Track

Эпоха: Sep 14, 2026, 13:12 UTC

1 26613U 00072F   26257.55061527  .00000210  00000-0  16642-2 0  9994
2 26613   7.0949 352.5588 7341147 214.9642 205.7951  2.03134511191134

Отслеживайте ARIANE 5 DEB в реальном времени с AllMySat

Download on the App Store